| time (UTC) | temp F | wind direction | speed MPH | gust MPH | rain 1hr in | rain 24hr in | rain mn in | humidity % | barometer mb |
| 20260505230543 | 55 | 325 | 8.0 | 15.0 | 0.00 | 0.00 | 0.00 | 46 | 1009.4 |
| 20260505225813 | 55 | 310 | 9.0 | 13.0 | 0.00 | 0.00 | 0.00 | 46 | 1009.7 |
| 20260505225307 | 56 | 333 | 8.0 | 13.0 | 0.00 | 0.00 | 0.00 | 46 | 1009.6 |
| 20260505225248 | 56 | 323 | 6.0 | 11.0 | 0.00 | 0.00 | 0.00 | 45 | 1009.6 |
| 20260505224255 | 56 | 284 | 6.0 | 15.0 | 0.00 | 0.00 | 0.00 | 43 | 1009.6 |
| 20260505224009 | 56 | 308 | 7.0 | 15.0 | 0.00 | 0.00 | 0.00 | 42 | 1009.5 |
| 20260505223243 | 56 | 312 | 8.0 | 13.0 | 0.00 | 0.00 | 0.00 | 45 | 1009.5 |
| 20260505222738 | 56 | 318 | 7.0 | 13.0 | 0.00 | 0.00 | 0.00 | 41 | 1009.5 |
| 20260505222230 | 56 | 301 | 8.0 | 14.0 | 0.00 | 0.00 | 0.00 | 44 | 1009.5 |
| 20260505221725 | 56 | 300 | 7.0 | 14.0 | 0.00 | 0.00 | 0.00 | 40 | 1009.5 |
| 20260505221218 | 56 | 292 | 6.0 | 11.0 | 0.00 | 0.00 | 0.00 | 43 | 1009.3 |
| 20260505220713 | 56 | 312 | 7.0 | 12.0 | 0.00 | 0.00 | 0.00 | 43 | 1009.5 |
| 20260505220207 | 56 | 269 | 7.0 | 13.0 | 0.00 | 0.00 | 0.00 | 44 | 1009.6 |
| 20260505215701 | 56 | 273 | 6.0 | 13.0 | 0.00 | 0.00 | 0.00 | 45 | 1009.5 |
| 20260505215155 | 56 | 276 | 5.0 | 11.0 | 0.00 | 0.00 | 0.00 | 46 | 1009.6 |
| 20260505214649 | 56 | 257 | 5.0 | 13.0 | 0.00 | 0.00 | 0.00 | 44 | 1009.6 |
| 20260505214143 | 56 | 300 | 7.0 | 14.0 | 0.00 | 0.00 | 0.00 | 47 | 1009.5 |
| 20260505213637 | 56 | 293 | 7.0 | 15.0 | 0.00 | 0.00 | 0.00 | 42 | 1009.6 |
| 20260505213131 | 55 | 255 | 9.0 | 15.0 | 0.00 | 0.00 | 0.00 | 41 | 1009.5 |
| 20260505212625 | 56 | 254 | 9.0 | 14.0 | 0.00 | 0.00 | 0.00 | 46 | 1009.7 |
| 20260505212119 | 56 | 277 | 9.0 | 14.0 | 0.00 | 0.00 | 0.00 | 43 | 1009.5 |
| 20260505211834 | 55 | 303 | 8.0 | 14.0 | 0.00 | 0.00 | 0.00 | 44 | 1009.6 |
| 20260505211106 | 55 | 319 | 9.0 | 15.0 | 0.00 | 0.00 | 0.00 | 43 | 1009.6 |
| 20260505210826 | 55 | 331 | 10.0 | 15.0 | 0.00 | 0.00 | 0.00 | 43 | 1009.6 |
| 20260505210055 | 55 | 316 | 9.0 | 16.0 | 0.00 | 0.00 | 0.00 | 44 | 1009.6 |
| 20260505205549 | 55 | 309 | 8.0 | 17.0 | 0.00 | 0.00 | 0.00 | 43 | 1009.6 |
| 20260505205043 | 55 | 299 | 7.0 | 17.0 | 0.00 | 0.00 | 0.00 | 41 | 1009.8 |
| 20260505204537 | 55 | 292 | 6.0 | 12.0 | 0.00 | 0.00 | 0.00 | 42 | 1009.7 |
| 20260505204030 | 55 | 333 | 7.0 | 13.0 | 0.00 | 0.00 | 0.00 | 42 | 1009.6 |
| 20260505203525 | 55 | 290 | 8.0 | 13.0 | 0.00 | 0.00 | 0.00 | 42 | 1009.7 |
| 20260505203019 | 55 | 252 | 9.0 | 13.0 | 0.00 | 0.00 | 0.00 | 42 | 1009.9 |
| 20260505202513 | 55 | 297 | 9.0 | 13.0 | 0.00 | 0.00 | 0.00 | 42 | 1010.0 |
| 20260505202006 | 55 | 288 | 9.0 | 16.0 | 0.00 | 0.00 | 0.00 | 40 | 1010.0 |
| 20260505201501 | 55 | 288 | 8.0 | 16.0 | 0.00 | 0.00 | 0.00 | 40 | 1009.9 |
| 20260505200955 | 55 | 259 | 9.0 | 14.0 | 0.00 | 0.00 | 0.00 | 39 | 1009.9 |
| 20260505200449 | 55 | 304 | 10.0 | 17.0 | 0.00 | 0.00 | 0.00 | 44 | 1009.9 |
| 20260505195947 | 55 | 297 | 10.0 | 17.0 | 0.00 | 0.00 | 0.00 | 43 | 1010.0 |
| 20260505195447 | 55 | 261 | 9.0 | 17.0 | 0.00 | 0.00 | 0.00 | 40 | 1010.0 |
| 20260505194947 | 55 | 304 | 9.0 | 15.0 | 0.00 | 0.00 | 0.00 | 42 | 1009.9 |
| 20260505194929 | 55 | 254 | 9.0 | 15.0 | 0.00 | 0.00 | 0.00 | 40 | 1010.1 |
| 20260505193948 | 55 | 258 | 7.0 | 12.0 | 0.00 | 0.00 | 0.00 | 43 | 1010.1 |
| 20260505193447 | 55 | 277 | 8.0 | 17.0 | 0.00 | 0.00 | 0.00 | 42 | 1010.0 |
| 20260505192947 | 55 | 245 | 10.0 | 19.0 | 0.00 | 0.00 | 0.00 | 41 | 1010.1 |
| 20260505192447 | 55 | 315 | 9.0 | 19.0 | 0.00 | 0.00 | 0.00 | 43 | 1010.1 |
| 20260505191946 | 55 | 275 | 9.0 | 16.0 | 0.00 | 0.00 | 0.00 | 39 | 1010.2 |
| 20260505191447 | 55 | 250 | 9.0 | 16.0 | 0.00 | 0.00 | 0.00 | 42 | 1010.3 |
| 20260505190946 | 55 | 275 | 9.0 | 16.0 | 0.00 | 0.00 | 0.00 | 45 | 1010.2 |
| 20260505190713 | 55 | 268 | 8.0 | 15.0 | 0.00 | 0.00 | 0.00 | 43 | 1010.1 |
| 20260505185947 | 55 | 261 | 9.0 | 19.0 | 0.00 | 0.00 | 0.00 | 41 | 1010.1 |
| 20260505185447 | 55 | 281 | 10.0 | 20.0 | 0.00 | 0.00 | 0.00 | 39 | 1010.1 |
| 20260505184947 | 54 | 246 | 8.0 | 20.0 | 0.00 | 0.00 | 0.00 | 38 | 1010.0 |
| 20260505184706 | 54 | 313 | 7.0 | 15.0 | 0.00 | 0.00 | 0.00 | 41 | 1010.1 |
| 20260505183947 | 54 | 319 | 8.0 | 12.0 | 0.00 | 0.00 | 0.00 | 46 | 1010.0 |
| 20260505183446 | 54 | 12 | 9.0 | 14.0 | 0.00 | 0.00 | 0.00 | 42 | 1010.1 |
| 20260505182947 | 54 | 275 | 10.0 | 15.0 | 0.00 | 0.00 | 0.00 | 46 | 1010.0 |
| 20260505182447 | 54 | 309 | 11.0 | 18.0 | 0.00 | 0.00 | 0.00 | 43 | 1010.0 |
| 20260505181947 | 54 | 335 | 11.0 | 18.0 | 0.00 | 0.00 | 0.00 | 44 | 1010.0 |
| 20260505181447 | 54 | 313 | 11.0 | 18.0 | 0.00 | 0.00 | 0.00 | 43 | 1010.1 |
| 20260505180947 | 53 | 280 | 10.0 | 18.0 | 0.00 | 0.00 | 0.00 | 41 | 1010.1 |
| 20260505180447 | 54 | 330 | 9.0 | 17.0 | 0.00 | 0.00 | 0.00 | 43 | 1010.0 |
| 20260505175947 | 54 | 279 | 9.0 | 17.0 | 0.00 | 0.00 | 0.00 | 42 | 1009.9 |
| 20260505175937 | 54 | 315 | 9.0 | 15.0 | 0.00 | 0.00 | 0.00 | 44 | 1009.8 |
| 20260505174947 | 53 | 325 | 9.0 | 16.0 | 0.00 | 0.00 | 0.00 | 43 | 1009.7 |
| 20260505174447 | 53 | 280 | 9.0 | 17.0 | 0.00 | 0.00 | 0.00 | 41 | 1009.7 |
| 20260505174205 | 53 | 293 | 9.0 | 18.0 | 0.00 | 0.00 | 0.00 | 39 | 1009.7 |
| 20260505173447 | 53 | 252 | 9.0 | 18.0 | 0.00 | 0.00 | 0.00 | 45 | 1009.7 |
| 20260505172947 | 53 | 249 | 9.0 | 16.0 | 0.00 | 0.00 | 0.00 | 43 | 1009.7 |
| 20260505172446 | 53 | 241 | 8.0 | 16.0 | 0.00 | 0.00 | 0.00 | 47 | 1009.7 |
| 20260505171946 | 53 | 290 | 9.0 | 18.0 | 0.00 | 0.00 | 0.00 | 48 | 1009.6 |
| 20260505171439 | 53 | 277 | 10.0 | 18.0 | 0.00 | 0.00 | 0.00 | 42 | 1009.7 |
| 20260505170933 | 53 | 313 | 9.0 | 14.0 | 0.00 | 0.00 | 0.00 | 46 | 1009.9 |
| 20260505170435 | 53 | 312 | 9.0 | 15.0 | 0.00 | 0.00 | 0.00 | 42 | 1009.9 |
| 20260505165936 | 53 | 319 | 8.0 | 15.0 | 0.00 | 0.00 | 0.00 | 41 | 1009.9 |
| 20260505165435 | 53 | 285 | 7.0 | 14.0 | 0.00 | 0.00 | 0.00 | 44 | 1009.9 |
| 20260505164935 | 53 | 296 | 10.0 | 17.0 | 0.00 | 0.00 | 0.00 | 45 | 1009.9 |
| 20260505164919 | 53 | 313 | 11.0 | 17.0 | 0.00 | 0.00 | 0.00 | 44 | 1009.8 |
| 20260505163934 | 53 | 331 | 9.0 | 14.0 | 0.00 | 0.00 | 0.00 | 45 | 1009.6 |
| 20260505163435 | 53 | 296 | 7.0 | 13.0 | 0.00 | 0.00 | 0.00 | 44 | 1009.6 |
| 20260505163158 | 53 | 244 | 7.0 | 12.0 | 0.00 | 0.00 | 0.00 | 48 | 1009.4 |
| 20260505162435 | 52 | 311 | 8.0 | 14.0 | 0.00 | 0.00 | 0.00 | 51 | 1009.6 |
| 20260505162158 | 52 | 293 | 9.0 | 18.0 | 0.00 | 0.00 | 0.00 | 46 | 1009.7 |
| 20260505161434 | 52 | 225 | 9.0 | 18.0 | 0.00 | 0.00 | 0.00 | 46 | 1009.7 |
| 20260505160934 | 52 | 293 | 9.0 | 20.0 | 0.00 | 0.00 | 0.00 | 48 | 1009.7 |
| 20260505160435 | 52 | 321 | 8.0 | 20.0 | 0.00 | 0.00 | 0.00 | 48 | 1009.8 |
| 20260505152905 | 51 | 255 | 7.0 | 13.0 | 0.00 | 0.00 | 0.00 | 49 | 1009.5 |
| 20260505152359 | 51 | 252 | 6.0 | 11.0 | 0.00 | 0.00 | 0.00 | 48 | 1009.6 |
| 20260505151853 | 51 | 307 | 7.0 | 14.0 | 0.00 | 0.00 | 0.00 | 50 | 1009.7 |
| 20260505151347 | 51 | 281 | 8.0 | 14.0 | 0.00 | 0.00 | 0.00 | 50 | 1009.6 |
| 20260505150841 | 51 | 257 | 8.0 | 12.0 | 0.00 | 0.00 | 0.00 | 50 | 1009.8 |
| 20260505150336 | 51 | 266 | 7.0 | 13.0 | 0.00 | 0.00 | 0.00 | 52 | 1009.8 |
| 20260505140224 | 49 | 302 | 7.0 | 11.0 | 0.00 | 0.00 | 0.00 | 56 | 1010.0 |
| 20260505124553 | 48 | 275 | 2.0 | 4.0 | 0.00 | 0.00 | 0.00 | 59 | 1009.8 |
| 20260505124047 | 48 | 265 | 2.0 | 4.0 | 0.00 | 0.00 | 0.00 | 59 | 1009.8 |
| 20260505123542 | 48 | 279 | 2.0 | 4.0 | 0.00 | 0.00 | 0.00 | 60 | 1009.8 |
| 20260505123302 | 48 | 280 | 2.0 | 4.0 | 0.00 | 0.00 | 0.00 | 58 | 1009.7 |
| 20260505122535 | 48 | 276 | 2.0 | 4.0 | 0.00 | 0.00 | 0.00 | 60 | 1009.8 |
| 20260505122036 | 48 | 287 | 2.0 | 5.0 | 0.00 | 0.00 | 0.00 | 59 | 1009.9 |
| 20260505121535 | 48 | 269 | 3.0 | 5.0 | 0.00 | 0.00 | 0.00 | 62 | 1010.0 |
| 20260505121257 | 48 | 282 | 3.0 | 6.0 | 0.00 | 0.00 | 0.00 | 60 | 1010.0 |
| 20260505120856 | 48 | 299 | 3.0 | 6.0 | 0.00 | 0.00 | 0.00 | 61 | 1009.5 |
| 20260505115756 | 48 | 302 | 3.0 | 6.0 | 0.00 | 0.00 | 0.00 | 62 | 1009.8 |
| 20260505115036 | 48 | 303 | 3.0 | 6.0 | 0.00 | 0.00 | 0.00 | 63 | 1009.5 |
| 20260505114535 | 48 | 280 | 4.0 | 8.0 | 0.00 | 0.00 | 0.00 | 61 | 1009.3 |
| 20260505114036 | 48 | 306 | 5.0 | 8.0 | 0.00 | 0.00 | 0.00 | 61 | 1009.8 |
| 20260505113537 | 48 | 315 | 5.0 | 8.0 | 0.00 | 0.00 | 0.00 | 59 | 1008.7 |
| 20260505113032 | 48 | 339 | 4.0 | 8.0 | 0.00 | 0.00 | 0.00 | 58 | 1008.9 |
| 20260505112532 | 48 | 333 | 3.0 | 9.0 | 0.00 | 0.00 | 0.00 | 59 | 1009.1 |
| 20260505112033 | 48 | 298 | 3.0 | 9.0 | 0.00 | 0.00 | 0.00 | 61 | 1008.5 |
| 20260505111531 | 48 | 355 | 3.0 | 8.0 | 0.00 | 0.00 | 0.00 | 61 | 1007.2 |
| 20260505111032 | 49 | 5 | 3.0 | 8.0 | 0.00 | 0.00 | 0.00 | 62 | 1007.6 |
| 20260505110755 | 49 | 319 | 3.0 | 6.0 | 0.00 | 0.00 | 0.00 | 62 | 1007.7 |
| 20260505102028 | 49 | 344 | 3.0 | 6.0 | 0.00 | 0.00 | 0.00 | 60 | 1007.4 |
| 20260505101747 | 49 | 323 | 3.0 | 6.0 | 0.00 | 0.00 | 0.00 | 61 | 1008.1 |
| 20260505101026 | 49 | 334 | 5.0 | 8.0 | 0.00 | 0.00 | 0.00 | 60 | 1007.6 |
| 20260505100527 | 49 | 313 | 4.0 | 9.0 | 0.00 | 0.00 | 0.00 | 61 | 1007.6 |
| 20260505100024 | 49 | 337 | 1.0 | 9.0 | 0.00 | 0.00 | 0.00 | 58 | 1007.6 |
| 20260505095523 | 49 | 56 | 0.0 | 2.0 | 0.00 | 0.00 | 0.00 | 58 | 1007.2 |
| 20260505095024 | 49 | 56 | 1.0 | 4.0 | 0.00 | 0.00 | 0.00 | 58 | 1006.9 |
| 20260505094521 | 49 | 313 | 1.0 | 6.0 | 0.00 | 0.00 | 0.00 | 59 | 1007.0 |
| 20260505094021 | 49 | 5 | 2.0 | 6.0 | 0.00 | 0.00 | 0.00 | 59 | 1007.2 |
| 20260505093749 | 49 | 348 | 2.0 | 8.0 | 0.00 | 0.00 | 0.00 | 59 | 1006.9 |
| 20260505093020 | 50 | 317 | 2.0 | 10.0 | 0.00 | 0.00 | 0.00 | 57 | 1007.1 |
| 20260505092514 | 50 | 355 | 2.0 | 10.0 | 0.00 | 0.00 | 0.00 | 59 | 1007.1 |
| 20260505092008 | 50 | 338 | 3.0 | 9.0 | 0.00 | 0.00 | 0.00 | 59 | 1007.2 |
| 20260505091502 | 50 | 313 | 4.0 | 12.0 | 0.00 | 0.00 | 0.00 | 59 | 1007.2 |
| 20260505090957 | 50 | 355 | 4.0 | 15.0 | 0.00 | 0.00 | 0.00 | 59 | 1007.2 |
| 20260505090450 | 50 | 340 | 5.0 | 15.0 | 0.00 | 0.00 | 0.00 | 59 | 1007.1 |
| 20260505085944 | 51 | 22 | 5.0 | 11.0 | 0.00 | 0.00 | 0.00 | 59 | 1006.9 |
| 20260505085439 | 51 | 343 | 3.0 | 9.0 | 0.00 | 0.00 | 0.00 | 60 | 1006.7 |
| 20260505084933 | 51 | 350 | 3.0 | 6.0 | 0.00 | 0.00 | 0.00 | 61 | 1006.7 |
| 20260505084426 | 51 | 322 | 4.0 | 6.0 | 0.00 | 0.00 | 0.00 | 58 | 1006.7 |
| 20260505083920 | 51 | 338 | 4.0 | 8.0 | 0.00 | 0.00 | 0.00 | 60 | 1006.6 |
| 20260505083415 | 51 | 322 | 4.0 | 8.0 | 0.00 | 0.00 | 0.00 | 58 | 1006.2 |
| 20260505082909 | 52 | 334 | 4.0 | 8.0 | 0.00 | 0.00 | 0.00 | 58 | 1006.2 |
| 20260505082402 | 52 | 344 | 4.0 | 9.0 | 0.00 | 0.00 | 0.00 | 59 | 1005.9 |
| 20260505081857 | 52 | 334 | 6.0 | 13.0 | 0.00 | 0.00 | 0.00 | 58 | 1005.8 |
| 20260505081352 | 52 | 338 | 6.0 | 13.0 | 0.00 | 0.00 | 0.00 | 57 | 1005.7 |
| 20260505080845 | 52 | 338 | 5.0 | 10.0 | 0.00 | 0.00 | 0.00 | 58 | 1005.5 |
| 20260505080338 | 53 | 355 | 6.0 | 11.0 | 0.00 | 0.00 | 0.00 | 58 | 1005.5 |
| 20260505080055 | 53 | 0 | 5.0 | 11.0 | 0.00 | 0.00 | 0.00 | 58 | 1005.2 |
| 20260505075326 | 53 | 332 | 4.0 | 12.0 | 0.00 | 0.00 | 0.00 | 57 | 1005.2 |
| 20260505074821 | 53 | 335 | 4.0 | 12.0 | 0.00 | 0.00 | 0.00 | 58 | 1005.1 |
| 20260505074314 | 53 | 329 | 5.0 | 11.0 | 0.00 | 0.00 | 0.00 | 56 | 1004.9 |
| 20260505073808 | 53 | 327 | 4.0 | 14.0 | 0.00 | 0.00 | 0.00 | 58 | 1004.9 |
| 20260505073302 | 54 | 304 | 4.0 | 14.0 | 0.00 | 0.00 | 0.00 | 55 | 1004.7 |
| 20260505072756 | 54 | 321 | 4.0 | 13.0 | 0.00 | 0.00 | 0.00 | 54 | 1004.5 |
| 20260505072250 | 55 | 344 | 4.0 | 13.0 | 0.00 | 0.00 | 0.00 | 58 | 1004.7 |
| 20260505071744 | 55 | 32 | 7.0 | 15.0 | 0.00 | 0.00 | 0.00 | 56 | 1004.6 |
| 20260505071502 | 55 | 328 | 8.0 | 15.0 | 0.00 | 0.00 | 0.00 | 56 | 1004.6 |
| 20260505070732 | 56 | 329 | 7.0 | 15.0 | 0.00 | 0.00 | 0.00 | 55 | 1004.3 |
| 20260505070707 | 56 | 345 | 8.0 | 15.0 | 0.00 | 0.00 | 0.00 | 56 | 1004.5 |
| 20260505065720 | 56 | 332 | 6.0 | 12.0 | 0.00 | 0.00 | 0.00 | 55 | 1004.4 |
| 20260505065214 | 56 | 299 | 4.0 | 6.0 | 0.00 | 0.00 | 0.00 | 54 | 1004.5 |
| 20260505064931 | 56 | 325 | 4.0 | 5.0 | 0.00 | 0.00 | 0.00 | 54 | 1004.4 |
| 20260505064202 | 56 | 315 | 4.0 | 6.0 | 0.00 | 0.00 | 0.00 | 53 | 1004.2 |
| 20260505063918 | 57 | 315 | 4.0 | 6.0 | 0.00 | 0.00 | 0.00 | 51 | 1004.0 |
| 20260505063151 | 57 | 312 | 4.0 | 6.0 | 0.00 | 0.00 | 0.00 | 51 | 1003.9 |
| 20260505063125 | 57 | 314 | 4.0 | 6.0 | 0.00 | 0.00 | 0.00 | 51 | 1004.1 |
| 20260505062406 | 57 | 313 | 4.0 | 8.0 | 0.00 | 0.00 | 0.00 | 52 | 1003.9 |
| 20260505061638 | 58 | 338 | 4.0 | 8.0 | 0.00 | 0.00 | 0.00 | 50 | 1003.9 |
| 20260505061137 | 58 | 313 | 5.0 | 7.0 | 0.00 | 0.00 | 0.00 | 49 | 1003.9 |
| 20260505060637 | 58 | 334 | 5.0 | 8.0 | 0.00 | 0.00 | 0.00 | 54 | 1003.9 |
| 20260505060137 | 58 | 311 | 5.0 | 9.0 | 0.00 | 0.00 | 0.00 | 47 | 1003.7 |
| 20260505055637 | 58 | 313 | 7.0 | 13.0 | 0.00 | 0.00 | 0.00 | 49 | 1003.7 |
| 20260505055622 | 59 | 321 | 8.0 | 13.0 | 0.00 | 0.00 | 0.00 | 48 | 1003.6 |
| 20260505054637 | 59 | 334 | 7.0 | 12.0 | 0.00 | 0.00 | 0.00 | 50 | 1003.7 |
| 20260505054358 | 59 | 327 | 7.0 | 15.0 | 0.00 | 0.00 | 0.00 | 48 | 1003.7 |
| 20260505054123 | 59 | 341 | 8.0 | 15.0 | 0.00 | 0.00 | 0.00 | 47 | 1003.7 |
| 20260505053137 | 59 | 314 | 7.0 | 13.0 | 0.00 | 0.00 | 0.00 | 46 | 1003.8 |
| 20260505052637 | 59 | 335 | 7.0 | 10.0 | 0.00 | 0.00 | 0.00 | 49 | 1003.7 |
| 20260505052137 | 59 | 329 | 5.0 | 10.0 | 0.00 | 0.00 | 0.00 | 48 | 1003.6 |
| 20260505051637 | 59 | 286 | 4.0 | 7.0 | 0.00 | 0.00 | 0.00 | 50 | 1003.5 |
| 20260505051137 | 59 | 296 | 4.0 | 7.0 | 0.00 | 0.00 | 0.00 | 48 | 1003.4 |
| 20260505050637 | 59 | 304 | 4.0 | 7.0 | 0.00 | 0.00 | 0.00 | 49 | 1003.1 |
| 20260505050131 | 60 | 297 | 4.0 | 8.0 | 0.00 | 0.00 | 0.00 | 48 | 1003.1 |
| 20260505041552 | 60 | 279 | 5.0 | 9.0 | 0.00 | 0.00 | 0.00 | 48 | 1002.8 |
| 20260505041052 | 61 | 288 | 4.0 | 9.0 | 0.00 | 0.00 | 0.00 | 49 | 1002.8 |
| 20260505040548 | 61 | 250 | 4.0 | 8.0 | 0.00 | 0.00 | 0.00 | 48 | 1002.7 |
| 20260505040048 | 61 | 279 | 4.0 | 8.0 | 0.00 | 0.00 | 0.00 | 49 | 1002.7 |
| 20260505035548 | 62 | 288 | 4.0 | 8.0 | 0.00 | 0.00 | 0.00 | 49 | 1002.6 |
| 20260505035047 | 62 | 277 | 6.0 | 10.0 | 0.00 | 0.00 | 0.00 | 48 | 1002.4 |
| 20260505034545 | 62 | 297 | 6.0 | 12.0 | 0.00 | 0.00 | 0.00 | 48 | 1002.3 |
| 20260505034046 | 63 | 302 | 5.0 | 12.0 | 0.00 | 0.00 | 0.00 | 49 | 1002.2 |
| 20260505034036 | 63 | 317 | 5.0 | 9.0 | 0.00 | 0.00 | 0.00 | 48 | 1002.3 |
| 20260505033045 | 64 | 290 | 6.0 | 10.0 | 0.00 | 0.00 | 0.00 | 46 | 1002.2 |
| 20260505032544 | 64 | 293 | 5.0 | 10.0 | 0.00 | 0.00 | 0.00 | 47 | 1002.0 |
| 20260505032044 | 65 | 283 | 5.0 | 9.0 | 0.00 | 0.00 | 0.00 | 46 | 1001.7 |
| 20260505031543 | 65 | 310 | 4.0 | 8.0 | 0.00 | 0.00 | 0.00 | 47 | 1001.7 |
| 20260505031305 | 65 | 291 | 4.0 | 11.0 | 0.00 | 0.00 | 0.00 | 46 | 1001.8 |
| 20260505030542 | 66 | 276 | 7.0 | 12.0 | 0.00 | 0.00 | 0.00 | 46 | 1002.0 |
| 20260505030042 | 66 | 283 | 8.0 | 12.0 | 0.00 | 0.00 | 0.00 | 44 | 1002.0 |
| 20260505025542 | 67 | 312 | 8.0 | 12.0 | 0.00 | 0.00 | 0.00 | 43 | 1002.0 |
| 20260505025314 | 67 | 317 | 9.0 | 14.0 | 0.00 | 0.00 | 0.00 | 45 | 1001.9 |
| 20260505024543 | 67 | 317 | 10.0 | 17.0 | 0.00 | 0.00 | 0.00 | 42 | 1001.6 |
| 20260505024044 | 68 | 303 | 10.0 | 17.0 | 0.00 | 0.00 | 0.00 | 42 | 1001.5 |
| 20260505024033 | 68 | 321 | 9.0 | 15.0 | 0.00 | 0.00 | 0.00 | 46 | 1001.3 |
| 20260505023042 | 69 | 346 | 8.0 | 15.0 | 0.00 | 0.00 | 0.00 | 46 | 1001.1 |
| 20260505022541 | 69 | 311 | 7.0 | 12.0 | 0.00 | 0.00 | 0.00 | 45 | 1000.9 |
| 20260505022042 | 69 | 319 | 7.0 | 11.0 | 0.00 | 0.00 | 0.00 | 45 | 1000.9 |
| 20260505021542 | 69 | 309 | 8.0 | 14.0 | 0.00 | 0.00 | 0.00 | 44 | 1000.9 |
| 20260505021041 | 70 | 315 | 10.0 | 19.0 | 0.00 | 0.00 | 0.00 | 43 | 1000.9 |
| 20260505020541 | 70 | 282 | 12.0 | 20.0 | 0.00 | 0.00 | 0.00 | 43 | 1000.9 |
| 20260505020040 | 70 | 336 | 10.0 | 20.0 | 0.00 | 0.00 | 0.00 | 46 | 1000.8 |
| 20260505015541 | 70 | 280 | 8.0 | 20.0 | 0.00 | 0.00 | 0.00 | 52 | 1000.5 |
| 20260505015039 | 70 | 271 | 8.0 | 16.0 | 0.00 | 0.00 | 0.00 | 54 | 1000.2 |
| 20260505014540 | 70 | 252 | 7.0 | 16.0 | 0.00 | 0.00 | 0.00 | 54 | 1000.0 |
| 20260505014040 | 70 | 309 | 8.0 | 15.0 | 0.00 | 0.00 | 0.00 | 55 | 999.8 |
| 20260505013540 | 70 | 247 | 9.0 | 15.0 | 0.00 | 0.00 | 0.00 | 53 | 999.3 |
| 20260505013039 | 70 | 211 | 10.0 | 15.0 | 0.00 | 0.00 | 0.00 | 55 | 999.3 |
| 20260505012532 | 69 | 201 | 9.0 | 17.0 | 0.00 | 0.00 | 0.00 | 56 | 999.2 |
| 20260505012029 | 69 | 221 | 7.0 | 17.0 | 0.00 | 0.00 | 0.00 | 60 | 999.0 |
| 20260505011530 | 69 | 173 | 7.0 | 17.0 | 0.00 | 0.00 | 0.00 | 59 | 998.9 |
| 20260505011029 | 70 | 213 | 8.0 | 17.0 | 0.00 | 0.00 | 0.00 | 59 | 998.7 |
| 20260505010530 | 70 | 228 | 8.0 | 13.0 | 0.00 | 0.00 | 0.00 | 58 | 998.6 |
| 20260505010029 | 71 | 207 | 8.0 | 13.0 | 0.00 | 0.00 | 0.00 | 56 | 998.5 |
| 20260505005530 | 71 | 220 | 7.0 | 13.0 | 0.00 | 0.00 | 0.00 | 52 | 998.2 |
| 20260505005031 | 72 | 186 | 6.0 | 10.0 | 0.00 | 0.00 | 0.00 | 51 | 997.9 |
| 20260505004748 | 72 | 209 | 6.0 | 10.0 | 0.00 | 0.00 | 0.00 | 50 | 997.9 |
| 20260505004246 | 71 | 215 | 7.0 | 10.0 | 0.00 | 0.00 | 0.00 | 51 | 997.6 |
| 20260505003528 | 70 | 221 | 8.0 | 12.0 | 0.00 | 0.00 | 0.00 | 52 | 997.6 |
| 20260505003027 | 69 | 169 | 7.0 | 12.0 | 0.00 | 0.00 | 0.00 | 55 | 997.7 |
| 20260505002529 | 69 | 186 | 6.0 | 11.0 | 0.00 | 0.00 | 0.00 | 63 | 997.7 |
| 20260505002027 | 69 | 178 | 5.0 | 10.0 | 0.00 | 0.00 | 0.00 | 64 | 997.6 |
| 20260505001527 | 69 | 188 | 6.0 | 10.0 | 0.00 | 0.00 | 0.00 | 62 | 997.4 |
| 20260505001246 | 70 | 192 | 6.0 | 11.0 | 0.00 | 0.00 | 0.00 | 61 | 997.3 |
| 20260505000527 | 70 | 188 | 6.0 | 11.0 | 0.00 | 0.00 | 0.00 | 58 | 997.1 |
| 20260505000020 | 71 | 181 | 5.0 | 8.0 | 0.00 | 0.00 | 0.00 | 59 | 997.2 |
| 20260504235513 | 72 | 174 | 5.0 | 10.0 | 0.00 | 0.00 | 0.00 | 57 | 997.2 |
| 20260504235007 | 72 | 200 | 7.0 | 11.0 | 0.00 | 0.00 | 0.00 | 54 | 997.2 |
| 20260504234727 | 73 | 194 | 7.0 | 11.0 | 0.00 | 0.00 | 0.00 | 51 | 997.3 |
| 20260504234222 | 73 | 184 | 8.0 | 11.0 | 0.00 | 0.00 | 0.00 | 49 | 997.3 |
| 20260504233449 | 73 | 219 | 8.0 | 11.0 | 0.00 | 0.00 | 0.00 | 51 | 997.5 |
| 20260504232942 | 73 | 209 | 8.0 | 12.0 | 0.00 | 0.00 | 0.00 | 49 | 997.5 |
| 20260504232437 | 73 | 222 | 9.0 | 18.0 | 0.00 | 0.00 | 0.00 | 51 | 997.6 |
| 20260504231931 | 73 | 208 | 9.0 | 18.0 | 0.00 | 0.00 | 0.00 | 50 | 997.8 |
| 20260504231425 | 72 | 210 | 11.0 | 20.0 | 0.00 | 0.00 | 0.00 | 48 | 997.9 |
| 20260504231142 | 73 | 240 | 12.0 | 21.0 | 0.00 | 0.00 | 0.00 | 51 | 998.0 |